Powrót do katalogu

SL-16 DEB

AktywnyLEO
NORAD 39860·DEBRIS·🇷🇺 Russia

Wystrzelony Dec 25, 1992 z Baikonur Cosmodrome

Loading…

Następne Przeloty (najbliższe 24 godziny)

TLE

Starzejące sięSource: Space-Track

Epoka: Sep 12, 2026, 09:41 UTC

1 39860U 92093LN  26255.40397725  .00000853  00000-0  32909-3 0  9998
2 39860  70.7858 163.0822 0026920 142.4093 217.8926 14.32975239639049

Śledź SL-16 DEB w czasie rzeczywistym z AllMySat

Download on the App Store